Location: Fours
(44.3167°N, 6.7000°E)
Time: 01:30:07
(UTC+00:00)

Cosmos 1356 - Pass Details

Date: 16 October 2021
Orbit: 433 x 436 km, 81.1° (Epoch: 02 December)

Event Time Altitude Azimuth Distance (km) Brightness Sun altitude
Rises 17:41:38 0° 346° (NNW) 2,436 7.3 -10.5°
Reaches altitude 10° 17:43:43 10° 344° (NNW) 1,562 6.3 -10.9°
Maximum altitude 17:47:05 65° 262° (W) 490 3.8 -11.5°
Drops below altitude 10° 17:50:27 10° 180° (S) 1,551 6.1 -12.1°
Sets 17:52:30 0° 177° (S) 2,415 7.1 -12.4°
